Daily Reports
[Select Refresh to Update]
Updated Automatically by Ambient Software's Virtual Weather Station  V14.01


Daily Archive Report

Parameter                   Max   Max Time        Min   Min Time    Average
Wind Direction              358    12:38am          0    12:16am        338
Wind Speed                 15.0     8:27am        0.0    12:03am        3.5
Wind Gust                  15.0     8:27am        1.0     1:00am       11.9
Humidity                     91    12:00am         72    11:46am         84
Out Temp                   51.4    11:54am       47.4     7:09am       48.6
Raw Barometer             29.88    11:29am      29.69    12:00am      29.78
Dew Point                  47.7    12:00am       41.1     8:27am       44.1


Today's  Data File

4/26/15
Time         Wind Dir   Wind Spd  Wind Gust   Humidity       Temp  Raw Barom  Dew Point Barom Rate Wind Spd H WindGust H Humidity H Temp Out H Humidity L Temp Out L  DailyRain   24HrRain
                            mph        mph          %         F         in         F      in/hr        mph        mph          %         F          %         F         in         in
12:00am           326        3.0       11.0         91       50.2      29.69       47.7      0.018       11.0       11.0         91       50.2         91       50.2       0.00       0.00
12:05am           328        2.0        5.0         91       50.2      29.69       47.7      0.016       11.0       11.0         91       50.2         91       50.2       0.00       0.00
12:10am           331        1.0        7.0         91       50.1      29.69       47.6      0.015       11.0       11.0         91       50.2         91       50.1       0.00       0.00
12:15am           331        2.0        7.0         91       50.1      29.69       47.6      0.018       11.0       11.0         91       50.2         90       50.1       0.00       0.00
12:20am           326        1.0        8.0         90       49.9      29.69       47.1      0.016       11.0       11.0         91       50.2         90       49.9       0.00       0.00
12:25am           338        5.0        8.0         90       49.9      29.69       47.1      0.015       11.0       11.0         91       50.2         90       49.9       0.00       0.00
12:30am           334        0.0        8.0         90       49.9      29.69       47.1      0.017       11.0       11.0         91       50.2         90       49.9       0.00       0.00
12:35am           326        1.0        8.0         90       49.9      29.69       47.1      0.015       11.0       11.0         91       50.2         90       49.9       0.00       0.00
12:40am           331        2.0        8.0         89       49.8      29.69       46.7      0.014       11.0       11.0         91       50.2         89       49.8       0.00       0.00
12:45am           338        3.0       10.0         89       49.8      29.70       46.7      0.024       11.0       11.0         91       50.2         89       49.8       0.00       0.00
12:50am           343        5.0       10.0         89       49.6      29.70       46.5      0.022       11.0       11.0         91       50.2         89       49.6       0.00       0.00
12:55am           336        3.0       10.0         89       49.6      29.70       46.5      0.020       11.0       11.0         91       50.2         89       49.6       0.00       0.00
1:00am            290        1.0       10.0         89       49.6      29.71       46.5      0.022       11.0       11.0         91       50.2         89       49.6       0.00       0.00
1:05am            324        2.0        7.0         89       49.6      29.71       46.5      0.020       11.0       11.0         91       50.2         89       49.5       0.00       0.00
1:10am            319        4.0        7.0         89       49.5      29.71       46.4      0.018       11.0       11.0         91       50.2         89       49.5       0.00       0.00
1:15am            313        1.0        7.0         88       49.5      29.71       46.1      0.019       11.0       11.0         91       50.2         88       49.5       0.00       0.00
1:20am            331        0.0        7.0         88       49.5      29.71       46.1      0.017       11.0       11.0         91       50.2         88       49.5       0.00       0.00
1:25am            350        0.0        7.0         88       49.5      29.71       46.1      0.016       11.0       11.0         91       50.2         88       49.5       0.00       0.00
1:30am            350        1.0        7.0         88       49.4      29.71       46.0      0.019       11.0       11.0         91       50.2         88       49.4       0.00       0.00
1:35am            303        1.0        8.0         88       49.4      29.71       46.0      0.017       11.0       11.0         91       50.2         88       49.4       0.00       0.00
1:40am            328        2.0        8.0         88       49.4      29.71       46.0      0.016       11.0       11.0         91       50.2         88       49.4       0.00       0.00
1:45am            328        0.0        8.0         88       49.2      29.72       45.8      0.022       11.0       11.0         91       50.2         88       49.2       0.00       0.00
1:50am            336        3.0        8.0         88       49.2      29.72       45.8      0.021       11.0       11.0         91       50.2         88       49.2       0.00       0.00
1:55am            340        0.0        8.0         88       49.2      29.72       45.8      0.019       11.0       11.0         91       50.2         88       49.2       0.00       0.00
2:00am            345        5.0        8.0         88       49.2      29.72       45.8      0.017       11.0       11.0         91       50.2         88       49.2       0.00       0.00
2:05am            345        0.0       10.0         87       49.2      29.72       45.5      0.016       11.0       11.0         91       50.2         87       49.2       0.00       0.00
2:10am            344        5.0       10.0         88       49.2      29.72       45.8      0.015       11.0       11.0         91       50.2         87       49.2       0.00       0.00
2:15am            337        1.0       10.0         88       49.2      29.73       45.8      0.016       11.0       11.0         91       50.2         87       49.2       0.00       0.00
2:20am            338        2.0       10.0         87       49.1      29.73       45.4      0.015       11.0       11.0         91       50.2         87       49.1       0.00       0.00
2:25am            348        2.0       10.0         87       49.1      29.73       45.4      0.014       11.0       11.0         91       50.2         87       49.1       0.00       0.00
2:30am            328        2.0       10.0         87       49.1      29.73       45.4      0.015       11.0       11.0         91       50.2         87       49.1       0.00       0.00
2:35am            331        6.0       10.0         87       49.1      29.73       45.4      0.014       11.0       11.0         91       50.2         87       49.1       0.00       0.00
2:40am            333        3.0       12.0         87       49.1      29.73       45.4      0.013       12.0       12.0         91       50.2         87       49.1       0.00       0.00
2:45am            334        3.0       12.0         88       48.9      29.72       45.5      0.009       12.0       12.0         91       50.2         87       48.9       0.00       0.00
2:50am            330        6.0       12.0         88       48.8      29.72       45.4      0.008       12.0       12.0         91       50.2         87       48.8       0.00       0.00
2:55am            345        2.0       12.0         88       48.6      29.72       45.2      0.007       12.0       12.0         91       50.2         87       48.6       0.00       0.00
3:00am            341        4.0       12.0         89       48.6      29.72       45.5      0.007       12.0       12.0         91       50.2         87       48.6       0.00       0.00
3:05am            351        2.0        8.0         89       48.5      29.72       45.4      0.006       12.0       12.0         91       50.2         87       48.5       0.00       0.00
3:10am            328        5.0        8.0         89       48.5      29.72       45.4      0.006       12.0       12.0         91       50.2         87       48.5       0.00       0.00
3:15am            320        4.0       12.0         89       48.3      29.73       45.2      0.009       12.0       12.0         91       50.2         87       48.3       0.00       0.00
3:20am            327        7.0       12.0         89       48.3      29.73       45.2      0.008       12.0       12.0         91       50.2         87       48.3       0.00       0.00
3:25am            289        4.0       12.0         89       48.3      29.73       45.2      0.008       12.0       12.0         91       50.2         87       48.2       0.00       0.00
3:30am            333        2.0       12.0         89       48.3      29.73       45.2      0.010       12.0       12.0         91       50.2         87       48.2       0.00       0.00
3:35am            330        3.0       12.0         89       48.3      29.73       45.2      0.009       12.0       12.0         91       50.2         87       48.2       0.00       0.00
3:40am            334        0.0       12.0         89       48.3      29.73       45.2      0.009       12.0       12.0         91       50.2         87       48.2       0.00       0.00
3:45am            326        0.0       12.0         89       48.2      29.74       45.1      0.014       12.0       12.0         91       50.2         87       48.2       0.00       0.00
3:50am            333        0.0       12.0         89       48.2      29.74       45.1      0.013       12.0       12.0         91       50.2         87       48.2       0.00       0.00
3:55am            320        0.0       12.0         89       48.2      29.74       45.1      0.012       12.0       12.0         91       50.2         87       48.2       0.00       0.00
4:00am            351        2.0       12.0         89       48.2      29.74       45.1      0.014       12.0       12.0         91       50.2         87       48.2       0.00       0.00
4:05am            337        2.0        5.0         89       48.2      29.74       45.1      0.013       12.0       12.0         91       50.2         87       48.2       0.00       0.00
4:10am            327        0.0        7.0         88       48.2      29.74       44.8      0.012       12.0       12.0         91       50.2         87       48.2       0.00       0.00
4:15am            330        1.0       10.0         88       48.2      29.74       44.8      0.014       12.0       12.0         91       50.2         87       48.2       0.00       0.00
4:20am            295        1.0       10.0         88       48.2      29.74       44.8      0.013       12.0       12.0         91       50.2         87       48.2       0.00       0.00
4:25am            330        0.0       10.0         88       48.2      29.74       44.8      0.011       12.0       12.0         91       50.2         87       48.2       0.00       0.00
4:30am            328        2.0       10.0         87       48.2      29.74       44.5      0.011       12.0       12.0         91       50.2         87       48.2       0.00       0.00
4:35am            330        1.0       10.0         87       48.2      29.74       44.5      0.010       12.0       12.0         91       50.2         87       48.2       0.00       0.00
4:40am            334        6.0       10.0         87       48.2      29.74       44.5      0.009       12.0       12.0         91       50.2         87       48.2       0.00       0.00
4:45am            324        5.0       12.0         87       48.2      29.74       44.5      0.009       12.0       12.0         91       50.2         87       48.2       0.00       0.00
4:50am            330        1.0       12.0         87       48.2      29.74       44.5      0.008       12.0       12.0         91       50.2         87       48.2       0.00       0.00
4:55am             22        2.0       12.0         87       48.2      29.74       44.5      0.008       12.0       12.0         91       50.2         87       48.2       0.00       0.00
5:00am            334        7.0       12.0         87       48.2      29.75       44.5      0.010       12.0       12.0         91       50.2         87       48.2       0.00       0.00
5:05am            324        7.0       10.0         87       48.2      29.75       44.5      0.009       12.0       12.0         91       50.2         87       48.2       0.00       0.00
5:10am            330        0.0       10.0         88       48.2      29.75       44.8      0.009       12.0       12.0         91       50.2         87       48.2       0.00       0.00
5:15am            331        1.0       10.0         88       48.2      29.75       44.8      0.010       12.0       12.0         91       50.2         87       48.2       0.00       0.00
5:20am            324        1.0       10.0         88       48.0      29.75       44.6      0.009       12.0       12.0         91       50.2         87       48.0       0.00       0.00
5:25am            328        2.0       10.0         88       48.0      29.75       44.6      0.008       12.0       12.0         91       50.2         87       48.0       0.00       0.00
5:30am            351        8.0       10.0         88       48.0      29.75       44.6      0.013       12.0       12.0         91       50.2         87       48.0       0.00       0.00
5:35am            350        5.0       12.0         87       47.9      29.75       44.2      0.012       12.0       12.0         91       50.2         87       47.9       0.00       0.00
5:40am            350        7.0       12.0         87       48.0      29.75       44.3      0.011       12.0       12.0         91       50.2         87       47.9       0.00       0.00
5:45am            330        1.0       12.0         87       48.0      29.76       44.3      0.014       12.0       12.0         91       50.2         87       47.9       0.00       0.00
5:50am            336        7.0       12.0         87       48.0      29.76       44.3      0.013       12.0       12.0         91       50.2         87       47.9       0.00       0.00
5:55am            345        7.0       12.0         87       48.0      29.76       44.3      0.012       12.0       12.0         91       50.2         87       47.9       0.00       0.00
6:00am            344        5.0       12.0         87       48.0      29.76       44.3      0.016       12.0       12.0         91       50.2         87       47.9       0.00       0.00
6:05am            330        6.0        8.0         87       47.9      29.76       44.2      0.014       12.0       12.0         91       50.2         87       47.9       0.00       0.00
6:10am            327        0.0        8.0         88       47.9      29.76       44.5      0.013       12.0       12.0         91       50.2         87       47.9       0.00       0.00
6:15am            331        2.0        8.0         88       47.9      29.77       44.5      0.018       12.0       12.0         91       50.2         87       47.9       0.00       0.00
6:20am            352        5.0        8.0         88       47.7      29.77       44.3      0.017       12.0       12.0         91       50.2         87       47.7       0.00       0.00
6:25am            357        8.0       11.0         87       47.6      29.77       43.9      0.015       12.0       12.0         91       50.2         87       47.6       0.00       0.00
6:30am            330        3.0       11.0         87       47.6      29.78       43.9      0.026       12.0       12.0         91       50.2         87       47.6       0.00       0.00
6:35am            334        6.0       11.0         87       47.6      29.78       43.9      0.024       12.0       12.0         91       50.2         87       47.6       0.00       0.00
6:40am             14        0.0       11.0         86       47.6      29.78       43.6      0.022       12.0       12.0         91       50.2         86       47.6       0.00       0.00
6:45am            343        6.0       11.0         86       47.6      29.79       43.6      0.032       12.0       12.0         91       50.2         86       47.6       0.00       0.00
6:50am            328        1.0       11.0         86       47.6      29.79       43.6      0.029       12.0       12.0         91       50.2         86       47.6       0.00       0.00
6:55am            333        0.0       11.0         85       47.6      29.79       43.3      0.027       12.0       12.0         91       50.2         85       47.6       0.00       0.00
7:00am            327        1.0       12.0         85       47.6      29.80       43.3      0.036       12.0       12.0         91       50.2         85       47.6       0.00       0.00
7:05am            337        1.0        8.0         85       47.6      29.80       43.3      0.033       12.0       12.0         91       50.2         84       47.6       0.00       0.00
7:10am            328        3.0        8.0         84       47.4      29.80       42.8      0.030       12.0       12.0         91       50.2         84       47.4       0.00       0.00
7:15am            333        4.0       10.0         84       47.6      29.81       43.0      0.038       12.0       12.0         91       50.2         83       47.4       0.00       0.00
7:20am            347       10.0       11.0         83       47.4      29.81       42.5      0.035       12.0       12.0         91       50.2         83       47.4       0.00       0.00
7:25am            334        2.0       11.0         82       47.4      29.81       42.2      0.032       12.0       12.0         91       50.2         82       47.4       0.00       0.00
7:30am            337        5.0       11.0         81       47.4      29.82       41.9      0.036       12.0       12.0         91       50.2         81       47.4       0.00       0.00
7:35am            341        3.0       11.0         81       47.4      29.82       41.9      0.033       12.0       12.0         91       50.2         81       47.4       0.00       0.00
7:40am            328        5.0       11.0         81       47.4      29.82       41.9      0.031       12.0       12.0         91       50.2         81       47.4       0.00       0.00
7:45am            327        8.0       13.0         80       47.4      29.83       41.6      0.037       13.0       13.0         91       50.2         80       47.4       0.00       0.00
7:50am            326        3.0       13.0         80       47.4      29.83       41.6      0.034       13.0       13.0         91       50.2         80       47.4       0.00       0.00
7:55am            336       10.0       13.0         79       47.4      29.83       41.2      0.031       13.0       13.0         91       50.2         79       47.4       0.00       0.00
8:00am            331        4.0       13.0         79       47.4      29.84       41.2      0.036       13.0       13.0         91       50.2         79       47.4       0.00       0.00
8:05am            334        4.0       14.0         79       47.4      29.84       41.2      0.033       14.0       14.0         91       50.2         79       47.4       0.00       0.00
8:10am            347        5.0       14.0         79       47.4      29.84       41.2      0.030       14.0       14.0         91       50.2         79       47.4       0.00       0.00
8:15am            334        4.0       14.0         79       47.6      29.84       41.4      0.032       14.0       14.0         91       50.2         79       47.4       0.00       0.00
8:20am            351        0.0       14.0         79       47.6      29.84       41.4      0.029       14.0       14.0         91       50.2         79       47.4       0.00       0.00
8:25am            323        0.0       14.0         79       47.6      29.84       41.4      0.027       14.0       14.0         91       50.2         79       47.4       0.00       0.00
8:30am            331        6.0       15.0         78       47.6      29.84       41.1      0.027       15.0       15.0         91       50.2         78       47.4       0.00       0.00
8:35am            326        0.0       15.0         78       47.6      29.84       41.1      0.025       15.0       15.0         91       50.2         78       47.4       0.00       0.00
8:40am            333        1.0       15.0         79       47.7      29.84       41.5      0.023       15.0       15.0         91       50.2         78       47.4       0.00       0.00
8:45am            320        3.0       15.0         78       47.7      29.84       41.2      0.022       15.0       15.0         91       50.2         78       47.4       0.00       0.00
8:50am            330        2.0       15.0         79       47.7      29.84       41.5      0.020       15.0       15.0         91       50.2         78       47.4       0.00       0.00
8:55am            345        5.0       15.0         79       47.9      29.84       41.7      0.018       15.0       15.0         91       50.2         78       47.4       0.00       0.00
9:00am            326        3.0       15.0         78       47.9      29.84       41.4      0.018       15.0       15.0         91       50.2         78       47.4       0.00       0.00
9:05am            336        5.0        9.0         79       48.0      29.84       41.8      0.017       15.0       15.0         91       50.2         78       47.4       0.00       0.00
9:10am            328        5.0        9.0         78       48.0      29.84       41.5      0.015       15.0       15.0         91       50.2         78       47.4       0.00       0.00
9:15am            334       10.0       10.0         79       48.2      29.84       42.0      0.014       15.0       15.0         91       50.2         78       47.4       0.00       0.00
9:20am            327       13.0       14.0         78       48.2      29.84       41.7      0.013       15.0       15.0         91       50.2         78       47.4       0.00       0.00
9:25am            313        6.0       14.0         78       48.3      29.84       41.8      0.012       15.0       15.0         91       50.2         78       47.4       0.00       0.00
9:30am            351        7.0       14.0         78       48.3      29.85       41.8      0.015       15.0       15.0         91       50.2         78       47.4       0.00       0.00
9:35am            324        6.0       14.0         78       48.6      29.85       42.1      0.014       15.0       15.0         91       50.2         78       47.4       0.00       0.00
9:40am            324        1.0       14.0         77       48.6      29.85       41.7      0.013       15.0       15.0         91       50.2         77       47.4       0.00       0.00
9:45am              2        5.0       14.0         78       48.9      29.85       42.4      0.011       15.0       15.0         91       50.2         77       47.4       0.00       0.00
9:50am            331        9.0       14.0         77       49.1      29.85       42.2      0.010       15.0       15.0         91       50.2         77       47.4       0.00       0.00
9:55am            354       10.0       14.0         77       49.1      29.85       42.2      0.009       15.0       15.0         91       50.2         77       47.4       0.00       0.00
10:00am           352        3.0       14.0         77       49.1      29.86       42.2      0.018       15.0       15.0         91       50.2         76       47.4       0.00       0.00
10:05am           350        5.0       11.0         77       49.1      29.86       42.2      0.017       15.0       15.0         91       50.2         76       47.4       0.00       0.00
10:10am           321        7.0       11.0         77       48.9      29.86       42.0      0.015       15.0       15.0         91       50.2         76       47.4       0.00       0.00
10:15am           334        2.0       12.0         76       48.8      29.86       41.6      0.019       15.0       15.0         91       50.2         76       47.4       0.00       0.00
10:20am           324        3.0       12.0         76       48.8      29.86       41.6      0.017       15.0       15.0         91       50.2         76       47.4       0.00       0.00
10:25am           333        6.0       12.0         76       48.8      29.86       41.6      0.016       15.0       15.0         91       50.2         76       47.4       0.00       0.00
10:30am           333        4.0       12.0         76       48.8      29.87       41.6      0.025       15.0       15.0         91       50.2         76       47.4       0.00       0.00
10:35am           338        5.0       12.0         76       48.9      29.87       41.7      0.023       15.0       15.0         91       50.2         76       47.4       0.00       0.00
10:40am           351        2.0       12.0         76       49.4      29.87       42.2      0.021       15.0       15.0         91       50.2         76       47.4       0.00       0.00
10:45am           338        2.0       12.0         76       49.8      29.87       42.6      0.019       15.0       15.0         91       50.2         76       47.4       0.00       0.00
10:50am           328        3.0       12.0         75       49.9      29.87       42.3      0.018       15.0       15.0         91       50.2         75       47.4       0.00       0.00
10:55am           336        6.0       12.0         74       49.8      29.87       41.9      0.016       15.0       15.0         91       50.2         74       47.4       0.00       0.00
11:00am           328        4.0       12.0         74       49.8      29.88       41.9      0.017       15.0       15.0         91       50.2         74       47.4       0.00       0.00
11:05am           312        0.0       10.0         75       49.9      29.88       42.3      0.016       15.0       15.0         91       50.2         74       47.4       0.00       0.00
11:10am           337        5.0       11.0         74       49.9      29.88       42.0      0.014       15.0       15.0         91       50.2         74       47.4       0.00       0.00
11:15am           334        7.0       11.0         73       49.8      29.88       41.5      0.017       15.0       15.0         91       50.2         73       47.4       0.00       0.00
11:20am           328        2.0       14.0         74       49.9      29.88       42.0      0.016       15.0       15.0         91       50.2         73       47.4       0.00       0.00
11:25am           350        1.0       14.0         74       50.2      29.88       42.2      0.014       15.0       15.0         91       50.2         73       47.4       0.00       0.00
11:30am           348        0.0       14.0         74       50.4      29.88       42.4      0.016       15.0       15.0         91       50.4         73       47.4       0.00       0.00
11:35am           336        3.0       14.0         74       50.5      29.88       42.5      0.015       15.0       15.0         91       50.5         73       47.4       0.00       0.00
11:40am           336        1.0       14.0         73       50.7      29.88       42.4      0.014       15.0       15.0         91       50.7         73       47.4       0.00       0.00
11:45am           336        0.0       14.0         73       50.7      29.88       42.4      0.009       15.0       15.0         91       50.7         73       47.4       0.00       0.00
11:50am           357        2.0       14.0         72       50.7      29.88       42.0      0.008       15.0       15.0         91       50.7         72       47.4       0.00       0.00
11:55am           341        2.0       14.0         72       51.4      29.88       42.7      0.007       15.0       15.0         91       51.4         72       47.4       0.00       0.00


Yesterday's Data File

4/25/15
Time         Wind Dir   Wind Spd  Wind Gust   Humidity       Temp  Raw Barom  Dew Point Barom Rate Wind Spd H WindGust H Humidity H Temp Out H Humidity L Temp Out L  DailyRain   24HrRain
                            mph        mph          %         F         in         F      in/hr        mph        mph          %         F          %         F         in         in
12:00am            56        5.0       10.0         76       60.7      29.42       53.1     -0.022       10.0       10.0         76       60.7         76       60.7       0.00       0.00
12:05am            46        1.0        5.0         76       60.7      29.42       53.1     -0.020       10.0       10.0         76       60.7         76       60.7       0.00       0.00
12:10am            46        3.0        8.0         76       60.7      29.42       53.1     -0.019       10.0       10.0         76       60.7         76       60.7       0.00       0.00
12:15am            56        3.0        8.0         76       60.7      29.43       53.1     -0.014       10.0       10.0         76       60.7         76       60.7       0.00       0.00
12:20am            22        6.0       13.0         76       60.7      29.43       53.1     -0.013       13.0       13.0         76       60.7         76       60.7       0.00       0.00
12:25am            80       12.0       13.0         76       60.7      29.43       53.1     -0.012       13.0       13.0         76       60.7         76       60.7       0.00       0.00
12:30am            45        6.0       13.0         76       60.9      29.41       53.3     -0.028       13.0       13.0         76       60.9         76       60.7       0.00       0.00
12:35am            22        8.0       13.0         76       60.7      29.41       53.1     -0.026       13.0       13.0         76       60.9         76       60.7       0.00       0.00
12:40am            76        4.0       13.0         76       60.7      29.41       53.1     -0.024       13.0       13.0         76       60.9         76       60.7       0.00       0.00
12:45am            60        5.0       13.0         76       60.7      29.42       53.1     -0.018       13.0       13.0         76       60.9         76       60.7       0.00       0.00
12:50am            29        6.0       13.0         76       60.7      29.42       53.1     -0.016       13.0       13.0         76       60.9         76       60.7       0.00       0.00
12:55am            66        8.0       13.0         76       60.5      29.42       52.9     -0.015       13.0       13.0         76       60.9         76       60.5       0.00       0.00
1:00am             48        2.0       13.0         77       60.4      29.42       53.2     -0.014       13.0       13.0         77       60.9         76       60.4       0.00       0.00
1:05am             74        2.0        8.0         78       60.2      29.42       53.3     -0.013       13.0       13.0         78       60.9         76       60.2       0.00       0.00
1:10am             35        4.0       11.0         79       60.1      29.42       53.6     -0.012       13.0       13.0         79       60.9         76       60.1       0.00       0.00
1:15am             42        7.0       11.0         79       59.8      29.41       53.3     -0.021       13.0       13.0         79       60.9         76       59.8       0.00       0.00
1:20am             52        7.0       11.0         79       59.6      29.41       53.1     -0.019       13.0       13.0         79       60.9         76       59.6       0.00       0.00
1:25am              2        3.0       11.0         80       59.6      29.41       53.4     -0.017       13.0       13.0         80       60.9         76       59.6       0.00       0.00
1:30am             60        5.0       11.0         80       59.5      29.40       53.3     -0.025       13.0       13.0         80       60.9         76       59.5       0.00       0.00
1:35am             49        3.0       11.0         80       59.3      29.40       53.1     -0.023       13.0       13.0         80       60.9         76       59.3       0.00       0.00
1:40am             72        3.0       12.0         80       59.3      29.40       53.1     -0.021       13.0       13.0         80       60.9         76       59.3       0.00       0.00
1:45am             48        2.0       12.0         80       59.2      29.39       53.0     -0.028       13.0       13.0         80       60.9         76       59.2       0.00       0.00
1:50am             53        6.0       12.0         80       59.2      29.39       53.0     -0.026       13.0       13.0         80       60.9         76       59.2       0.00       0.00
1:55am             49       10.0       12.0         80       59.0      29.39       52.8     -0.024       13.0       13.0         80       60.9         76       59.0       0.00       0.00
2:00am             36       11.0       12.0         80       59.0      29.37       52.8     -0.036       13.0       13.0         80       60.9         76       59.0       0.00       0.00
2:05am             48        6.0       11.0         80       59.0      29.37       52.8     -0.033       13.0       13.0         80       60.9         76       59.0       0.00       0.00
2:10am             62        6.0       11.0         81       59.0      29.37       53.2     -0.030       13.0       13.0         81       60.9         76       59.0       0.00       0.00
2:15am             43        4.0       11.0         81       58.9      29.36       53.1     -0.043       13.0       13.0         81       60.9         76       58.9       0.00       0.00
2:20am             31        7.0       11.0         81       58.9      29.36       53.1     -0.039       13.0       13.0         81       60.9         76       58.9       0.00       0.00
2:25am             28        4.0       11.0         81       58.7      29.36       52.9     -0.036       13.0       13.0         81       60.9         76       58.7       0.00       0.00
2:30am             59        7.0       11.0         81       58.7      29.35       52.9     -0.038       13.0       13.0         81       60.9         76       58.7       0.00       0.00
2:35am             26        5.0       11.0         81       58.6      29.35       52.8     -0.035       13.0       13.0         81       60.9         76       58.6       0.00       0.00
2:40am             33        5.0       11.0         81       58.6      29.35       52.8     -0.032       13.0       13.0         81       60.9         76       58.6       0.00       0.00
2:45am             33        5.0       11.0         81       58.4      29.34       52.6     -0.039       13.0       13.0         81       60.9         76       58.4       0.00       0.00
2:50am             33        2.0       11.0         82       58.3      29.34       52.8     -0.035       13.0       13.0         82       60.9         76       58.3       0.00       0.00
2:55am             33        2.0       11.0         82       58.1      29.34       52.6     -0.033       13.0       13.0         82       60.9         76       58.1       0.00       0.00
3:00am             33        0.0       11.0         82       58.0      29.34       52.5     -0.034       13.0       13.0         82       60.9         76       58.0       0.00       0.00
3:05am             33        5.0        6.0         82       58.0      29.34       52.5     -0.031       13.0       13.0         82       60.9         76       58.0       0.00       0.00
3:10am             33        0.0        6.0         83       58.0      29.34       52.9     -0.029       13.0       13.0         83       60.9         76       58.0       0.00       0.00
3:15am             33        2.0        6.0         83       58.0      29.35       52.9     -0.019       13.0       13.0         83       60.9         76       58.0       0.00       0.00
3:20am             94        4.0        7.0         83       58.0      29.35       52.9     -0.017       13.0       13.0         83       60.9         76       58.0       0.00       0.00
3:25am             56        6.0        7.0         83       58.0      29.35       52.9     -0.016       13.0       13.0         83       60.9         76       58.0       0.00       0.00
3:30am             50        2.0        8.0         84       57.8      29.32       53.0     -0.038       13.0       13.0         84       60.9         76       57.8       0.00       0.00
3:35am             91        8.0        8.0         85       57.6      29.32       53.1     -0.035       13.0       13.0         85       60.9         76       57.6       0.00       0.00
3:40am             63        5.0        8.0         86       57.5      29.32       53.4     -0.032       13.0       13.0         86       60.9         76       57.5       0.00       0.00
3:45am             53        3.0        9.0         86       57.2      29.34       53.1     -0.009       13.0       13.0         86       60.9         76       57.2       0.00       0.00
3:50am             62        0.0        9.0         86       57.2      29.34       53.1     -0.008       13.0       13.0         86       60.9         76       57.2       0.00       0.00
3:55am             60        0.0        9.0         86       57.0      29.34       52.9     -0.008       13.0       13.0         86       60.9         76       57.0       0.00       0.00
4:00am             60        0.0        9.0         87       57.0      29.35       53.2     -0.005       13.0       13.0         87       60.9         76       57.0       0.00       0.00
4:05am             62        1.0        6.0         87       57.0      29.35       53.2     -0.005       13.0       13.0         87       60.9         76       57.0       0.00       0.00
4:10am             63        5.0        8.0         87       56.9      29.35       53.1     -0.004       13.0       13.0         87       60.9         76       56.9       0.00       0.00
4:15am             64        1.0        8.0         88       56.9      29.34       53.4     -0.009       13.0       13.0         88       60.9         76       56.9       0.00       0.00
4:20am             64        3.0        8.0         88       56.7      29.34       53.2     -0.008       13.0       13.0         88       60.9         76       56.7       0.00       0.00
4:25am            334        7.0        8.0         88       56.6      29.34       53.1     -0.007       13.0       13.0         88       60.9         76       56.6       0.00       0.00
4:30am            323        2.0        8.0         89       56.5      29.25       53.3     -0.096       13.0       13.0         89       60.9         76       56.5       0.00       0.00
4:35am            321        0.0        8.0         89       56.3      29.25       53.1     -0.089       13.0       13.0         89       60.9         76       56.3       0.00       0.00
4:40am             97       11.0       11.0         89       56.3      29.25       53.1     -0.082       13.0       13.0         89       60.9         76       56.3       0.00       0.00
4:45am             52        2.0       19.0         90       56.6      29.32       53.7     -0.011       19.0       19.0         90       60.9         76       56.3       0.00       0.00
4:50am             36        7.0       19.0         90       56.6      29.32       53.7     -0.010       19.0       19.0         90       60.9         76       56.3       0.00       0.00
4:55am             15        6.0       19.0         89       56.5      29.32       53.3     -0.009       19.0       19.0         90       60.9         76       56.3       0.00       0.00
5:00am             15        1.0       19.0         89       56.3      29.29       53.1     -0.035       19.0       19.0         90       60.9         76       56.3       0.00       0.00
5:05am             15        0.0        4.0         90       56.2      29.29       53.3     -0.032       19.0       19.0         90       60.9         76       56.2       0.00       0.00
5:10am             39        0.0        5.0         90       56.2      29.29       53.3     -0.030       19.0       19.0         90       60.9         76       56.2       0.00       0.00
5:15am             39        0.0        5.0         90       56.0      29.29       53.1     -0.030       19.0       19.0         90       60.9         76       56.0       0.00       0.00
5:20am             39        0.0        5.0         90       56.0      29.29       53.1     -0.028       19.0       19.0         90       60.9         76       56.0       0.00       0.00
5:25am             39        0.0        5.0         90       55.9      29.29       53.0     -0.026       19.0       19.0         90       60.9         76       55.9       0.00       0.00
5:30am             39        0.0        5.0         90       55.9      29.28       53.0     -0.025       19.0       19.0         90       60.9         76       55.9       0.00       0.00
5:35am             39        0.0        5.0         90       55.9      29.28       53.0     -0.023       19.0       19.0         90       60.9         76       55.9       0.00       0.00
5:40am             40        1.0        5.0         90       55.9      29.28       53.0     -0.021       19.0       19.0         90       60.9         76       55.9       0.00       0.00
5:45am             40        0.0        5.0         90       56.0      29.29       53.1     -0.018       19.0       19.0         90       60.9         76       55.9       0.00       0.00
5:50am             40        0.0        5.0         90       56.0      29.29       53.1     -0.017       19.0       19.0         90       60.9         76       55.9       0.00       0.00
5:55am             50        0.0        6.0         91       56.2      29.29       53.6     -0.015       19.0       19.0         91       60.9         76       55.9       0.00       0.00
6:00am             52        2.0        6.0         91       56.3      29.27       53.7     -0.028       19.0       19.0         91       60.9         76       55.9       0.00       0.00
6:05am             60        2.0        6.0         91       56.3      29.27       53.7     -0.026       19.0       19.0         91       60.9         76       55.9       0.00       0.00
6:10am             80        0.0        6.0         91       56.5      29.27       53.9     -0.024       19.0       19.0         91       60.9         76       55.9       0.00       0.00
6:15am             80        3.0        6.0         91       56.5      29.28       53.9     -0.017       19.0       19.0         91       60.9         76       55.9       0.00       0.00
6:20am             80        0.0        6.0         91       56.6      29.28       54.0     -0.016       19.0       19.0         91       60.9         76       55.9       0.00       0.00
6:25am             43        1.0        6.0         91       56.7      29.28       54.1     -0.014       19.0       19.0         91       60.9         76       55.9       0.00       0.00
6:30am             43        0.0        6.0         91       56.7      29.27       54.1     -0.015       19.0       19.0         91       60.9         76       55.9       0.00       0.00
6:35am             80        2.0        6.0         91       56.9      29.27       54.3     -0.014       19.0       19.0         91       60.9         76       55.9       0.00       0.00
6:40am             81        0.0        6.0         91       57.0      29.27       54.4     -0.013       19.0       19.0         91       60.9         76       55.9       0.00       0.00
6:45am             80        3.0        6.0         91       57.0      29.27       54.4     -0.016       19.0       19.0         91       60.9         76       55.9       0.00       0.00
6:50am             81        0.0        6.0         91       57.2      29.27       54.6     -0.014       19.0       19.0         91       60.9         76       55.9       0.00       0.00
6:55am             67        3.0        7.0         91       57.3      29.27       54.7     -0.013       19.0       19.0         91       60.9         76       55.9       0.00       0.00
7:00am             67        1.0        7.0         91       57.3      29.27       54.7     -0.011       19.0       19.0         91       60.9         76       55.9       0.00       0.00
7:05am             67        3.0        5.0         91       57.5      29.27       54.9     -0.010       19.0       19.0         91       60.9         76       55.9       0.00       0.00
7:10am             67        0.0        5.0         91       57.5      29.27       54.9     -0.010       19.0       19.0         91       60.9         76       55.9       0.00       0.00
7:15am             60        0.0        5.0         91       57.6      29.27       55.0     -0.009       19.0       19.0         91       60.9         76       55.9       0.00       0.00
7:20am             60        0.0        5.0         91       57.8      29.27       55.2     -0.008       19.0       19.0         91       60.9         76       55.9       0.00       0.00
7:25am             60        2.0        5.0         91       57.8      29.27       55.2     -0.007       19.0       19.0         91       60.9         76       55.9       0.00       0.00
7:30am             62        0.0        5.0         91       57.8      29.27       55.2     -0.005       19.0       19.0         91       60.9         76       55.9       0.00       0.00
7:35am             60        0.0        5.0         91       58.0      29.27       55.4     -0.004       19.0       19.0         91       60.9         76       55.9       0.00       0.00
7:40am             62        0.0        5.0         92       58.0      29.27       55.7     -0.004       19.0       19.0         92       60.9         76       55.9       0.00       0.00
7:45am             60        0.0        5.0         92       58.0      29.27       55.7     -0.005       19.0       19.0         92       60.9         76       55.9       0.00       0.00
7:50am             62        0.0        5.0         92       58.0      29.27       55.7     -0.004       19.0       19.0         92       60.9         76       55.9       0.00       0.00
7:55am             56        0.0        5.0         92       58.0      29.27       55.7     -0.004       19.0       19.0         92       60.9         76       55.9       0.00       0.00
8:00am             57        1.0        5.0         92       58.1      29.28       55.8      0.003       19.0       19.0         92       60.9         76       55.9       0.00       0.00
8:05am            245        0.0        4.0         92       58.1      29.28       55.8      0.003       19.0       19.0         92       60.9         76       55.9       0.00       0.00
8:10am            268        0.0        5.0         92       58.0      29.28       55.7      0.003       19.0       19.0         92       60.9         76       55.9       0.00       0.00
8:15am            266        0.0        6.0         92       57.8      29.29       55.5      0.010       19.0       19.0         92       60.9         76       55.9       0.00       0.00
8:20am            279        1.0        6.0         92       57.6      29.29       55.3      0.010       19.0       19.0         92       60.9         76       55.9       0.00       0.00
8:25am            293        0.0        6.0         92       57.6      29.29       55.3      0.009       19.0       19.0         92       60.9         76       55.9       0.00       0.00
8:30am            293        0.0        6.0         92       57.6      29.29       55.3      0.010       19.0       19.0         92       60.9         76       55.9       0.00       0.00
8:35am            296        0.0        6.0         92       57.6      29.29       55.3      0.009       19.0       19.0         92       60.9         76       55.9       0.00       0.00
8:40am            296        0.0        6.0         92       57.6      29.29       55.3      0.008       19.0       19.0         92       60.9         76       55.9       0.00       0.00
8:45am            296        2.0        6.0         92       57.8      29.29       55.5      0.006       19.0       19.0         92       60.9         76       55.9       0.00       0.00
8:50am            297        0.0        6.0         92       58.0      29.29       55.7      0.005       19.0       19.0         92       60.9         76       55.9       0.00       0.00
8:55am            297        0.0        6.0         92       58.0      29.29       55.7      0.005       19.0       19.0         92       60.9         76       55.9       0.00       0.00
9:00am            297        0.0        6.0         92       58.1      29.29       55.8      0.005       19.0       19.0         92       60.9         76       55.9       0.00       0.00
9:05am            296        2.0        3.0         92       58.3      29.29       56.0      0.004       19.0       19.0         92       60.9         76       55.9       0.00       0.00
9:10am            303        0.0        3.0         92       58.3      29.29       56.0      0.004       19.0       19.0         92       60.9         76       55.9       0.00       0.00
9:15am            304        0.0        4.0         92       58.4      29.29       56.1      0.003       19.0       19.0         92       60.9         76       55.9       0.00       0.00
9:20am            317        0.0        5.0         92       58.4      29.29       56.1      0.002       19.0       19.0         92       60.9         76       55.9       0.00       0.00
9:25am            317        0.0        5.0         92       58.6      29.29       56.3      0.002       19.0       19.0         92       60.9         76       55.9       0.00       0.00
9:30am            317        0.0        5.0         92       59.0      29.30       56.7      0.011       19.0       19.0         92       60.9         76       55.9       0.00       0.00
9:35am            316        0.0        5.0         92       59.3      29.30       57.0      0.010       19.0       19.0         93       60.9         76       55.9       0.00       0.00
9:40am            336        0.0        6.0         92       59.3      29.30       57.0      0.009       19.0       19.0         93       60.9         76       55.9       0.00       0.00
9:45am            355        3.0        6.0         92       59.5      29.30       57.2      0.012       19.0       19.0         93       60.9         76       55.9       0.00       0.00
9:50am            355        0.0        6.0         92       60.2      29.30       57.9      0.011       19.0       19.0         93       60.9         76       55.9       0.00       0.00
9:55am            355        1.0        6.0         91       60.4      29.30       57.8      0.010       19.0       19.0         93       60.9         76       55.9       0.00       0.00
10:00am           354        0.0        6.0         91       60.7      29.31       58.1      0.020       19.0       19.0         93       60.9         76       55.9       0.00       0.00
10:05am             7        2.0        3.0         89       60.4      29.31       57.1      0.019       19.0       19.0         93       60.9         76       55.9       0.00       0.00
10:10am             7        0.0        3.0         89       60.2      29.31       57.0      0.017       19.0       19.0         93       60.9         76       55.9       0.00       0.00
10:15am             7        3.0        3.0         89       60.4      29.32       57.1      0.023       19.0       19.0         93       60.9         76       55.9       0.00       0.00
10:20am             7        0.0        3.0         88       60.4      29.32       56.8      0.021       19.0       19.0         93       60.9         76       55.9       0.00       0.00
10:25am             7        0.0        3.0         88       60.7      29.32       57.1      0.019       19.0       19.0         93       60.9         76       55.9       0.00       0.00
10:30am             7        0.0        3.0         88       61.0      29.32       57.4      0.021       19.0       19.0         93       61.0         76       55.9       0.00       0.00
10:35am             7        0.0        3.0         87       61.2      29.32       57.3      0.019       19.0       19.0         93       61.2         76       55.9       0.00       0.00
10:40am            64        0.0        4.0         86       61.5      29.32       57.3      0.018       19.0       19.0         93       61.5         76       55.9       0.00       0.00
10:45am            64        0.0        4.0         84       61.6      29.32       56.7      0.016       19.0       19.0         93       61.6         76       55.9       0.00       0.00
10:50am            66        0.0        4.0         84       62.0      29.32       57.1      0.015       19.0       19.0         93       62.0         76       55.9       0.00       0.00
10:55am            66        0.0        4.0         82       62.1      29.32       56.5      0.014       19.0       19.0         93       62.1         76       55.9       0.00       0.00
11:00am            62        0.0        4.0         81       62.1      29.33       56.2      0.019       19.0       19.0         93       62.1         76       55.9       0.00       0.00
11:05am            50        0.0        1.0         81       62.3      29.33       56.4      0.018       19.0       19.0         93       62.3         76       55.9       0.00       0.00
11:10am            50        0.0        1.0         82       62.0      29.33       56.4      0.016       19.0       19.0         93       62.3         76       55.9       0.00       0.00
11:15am            52        0.0        1.0         83       61.8      29.34       56.6      0.023       19.0       19.0         93       62.3         76       55.9       0.00       0.00
11:20am            50        0.0        1.0         83       61.6      29.34       56.4      0.021       19.0       19.0         93       62.3         76       55.9       0.00       0.00
11:25am            52        0.0        1.0         84       61.3      29.34       56.4      0.019       19.0       19.0         93       62.3         76       55.9       0.00       0.00
11:30am            50        2.0        4.0         85       61.0      29.34       56.5      0.022       19.0       19.0         93       62.3         76       55.9       0.00       0.00
11:35am            50        0.0        4.0         85       60.4      29.34       55.9      0.020       19.0       19.0         93       62.3         76       55.9       0.00       0.00
11:40am            52        0.0        4.0         86       59.9      29.34       55.7      0.019       19.0       19.0         93       62.3         76       55.9       0.00       0.00
11:45am            52        0.0        4.0         86       59.6      29.35       55.4      0.026       19.0       19.0         93       62.3         76       55.9       0.00       0.00
11:50am           144        2.0        5.0         87       59.6      29.35       55.7      0.024       19.0       19.0         93       62.3         76       55.9       0.00       0.00
11:55am           136        2.0        6.0         87       59.6      29.35       55.7      0.022       19.0       19.0         93       62.3         76       55.9       0.00       0.00
12:00pm           160        3.0        6.0         88       59.5      29.35       55.9      0.021       19.0       19.0         93       62.3         76       55.9       0.00       0.00
12:05pm           152        0.0        4.0         88       59.6      29.35       56.0      0.019       19.0       19.0         93       62.3         76       55.9       0.00       0.00
12:10pm           152        0.0        4.0         88       59.6      29.35       56.0      0.018       19.0       19.0         93       62.3         76       55.9       0.00       0.00
12:15pm           152        0.0        4.0         89       59.8      29.35       56.6      0.017       19.0       19.0         93       62.3         76       55.9       0.00       0.00
12:20pm           152        0.0        4.0         89       60.1      29.35       56.9      0.016       19.0       19.0         93       62.3         76       55.9       0.00       0.00
12:25pm           152        0.0        5.0         89       60.4      29.35       57.1      0.015       19.0       19.0         93       62.3         76       55.9       0.00       0.00
12:30pm           152        0.0        5.0         89       60.9      29.35       57.6      0.015       19.0       19.0         93       62.3         76       55.9       0.00       0.00
12:35pm           262        1.0        5.0         89       60.9      29.35       57.6      0.013       19.0       19.0         93       62.3         76       55.9       0.00       0.00
12:40pm           279        2.0        6.0         88       60.5      29.35       56.9      0.012       19.0       19.0         93       62.3         76       55.9       0.00       0.00
12:45pm           268        5.0        8.0         89       61.2      29.36       57.9      0.019       19.0       19.0         93       62.3         76       55.9       0.00       0.00
12:50pm           280        3.0        8.0         88       61.0      29.36       57.4      0.018       19.0       19.0         93       62.3         76       55.9       0.00       0.00
12:55pm           271        6.0        8.0         87       60.7      29.36       56.8      0.016       19.0       19.0         93       62.3         76       55.9       0.00       0.00
1:00pm            271        0.0        8.0         87       60.7      29.36       56.8      0.020       19.0       19.0         93       62.3         76       55.9       0.00       0.00
1:05pm            273        1.0        7.0         87       60.7      29.36       56.8      0.018       19.0       19.0         93       62.3         76       55.9       0.00       0.00
1:10pm            269        6.0        7.0         87       60.5      29.36       56.6      0.017       19.0       19.0         93       62.3         76       55.9       0.00       0.00
1:15pm            268        0.0        7.0         87       60.4      29.37       56.5      0.021       19.0       19.0         93       62.3         76       55.9       0.00       0.00
1:20pm            266        3.0        7.0         87       60.2      29.37       56.3      0.020       19.0       19.0         93       62.3         76       55.9       0.00       0.00
1:25pm            265        0.0        7.0         88       60.2      29.37       56.6      0.018       19.0       19.0         93       62.3         76       55.9       0.00       0.00
1:30pm            265        0.0        7.0         88       60.5      29.38       56.9      0.022       19.0       19.0         93       62.3         76       55.9       0.00       0.00
1:34pm            268        3.0        7.0         88       60.7      29.38       57.1      0.020       19.0       19.0         93       62.3         76       55.9       0.00       0.00
1:40pm            283        4.0        7.0         88       60.9      29.38       57.3      0.018       19.0       19.0         93       62.3         76       55.9       0.00       0.00
1:45pm            265        4.0        7.0         88       60.9      29.38       57.3      0.019       19.0       19.0         93       62.3         76       55.9       0.00       0.00
1:50pm            265        3.0        7.0         89       61.3      29.38       58.0      0.017       19.0       19.0         93       62.3         76       55.9       0.00       0.00
1:55pm            269        4.0        7.0         88       62.1      29.38       58.5      0.016       19.0       19.0         93       62.3         76       55.9       0.00       0.00
2:00pm            262        1.0        7.0         87       62.3      29.38       58.4      0.018       19.0       19.0         93       62.4         76       55.9       0.00       0.00
2:04pm            264        1.0        6.0         88       62.9      29.38       59.3      0.016       19.0       19.0         93       62.9         76       55.9       0.00       0.00
2:10pm            288        5.0       11.0         85       62.6      29.38       58.0      0.015       19.0       19.0         93       63.1         76       55.9       0.00       0.00
2:15pm            282        2.0       11.0         84       61.3      29.40       56.4      0.029       19.0       19.0         93       63.1         76       55.9       0.00       0.00
2:20pm            144        0.0       11.0         84       60.4      29.40       55.6      0.027       19.0       19.0         93       63.1         76       55.9       0.00       0.00
2:25pm            254        5.0       11.0         85       59.9      29.40       55.4      0.025       19.0       19.0         93       63.1         76       55.9       0.00       0.00
2:30pm            283        0.0       11.0         86       59.6      29.41       55.4      0.033       19.0       19.0         93       63.1         76       55.9       0.00       0.00
2:35pm            275        4.0       11.0         86       59.6      29.41       55.4      0.030       19.0       19.0         93       63.1         76       55.9       0.00       0.00
2:40pm            262        2.0       11.0         86       59.6      29.41       55.4      0.028       19.0       19.0         93       63.1         76       55.9       0.00       0.00
2:45pm            331        2.0       11.0         86       59.5      29.42       55.3      0.035       19.0       19.0         93       63.1         76       55.9       0.00       0.00
2:50pm            324        0.0       11.0         86       59.2      29.42       55.0      0.033       19.0       19.0         93       63.1         76       55.9       0.00       0.00
2:55pm            266        1.0       11.0         86       59.2      29.42       55.0      0.030       19.0       19.0         93       63.1         76       55.9       0.00       0.00
3:00pm            276        3.0       11.0         85       59.0      29.42       54.5      0.033       19.0       19.0         93       63.1         76       55.9       0.00       0.00
3:05pm            258        4.0       10.0         86       59.0      29.42       54.8      0.031       19.0       19.0         93       63.1         76       55.9       0.00       0.00
3:10pm            292        3.0       10.0         85       59.0      29.42       54.5      0.028       19.0       19.0         93       63.1         76       55.9       0.00       0.00
3:15pm            285        2.0       10.0         85       58.9      29.43       54.4      0.035       19.0       19.0         93       63.1         76       55.9       0.00       0.00
3:20pm            317        0.0       12.0         84       58.7      29.43       53.9      0.032       19.0       19.0         93       63.1         76       55.9       0.00       0.00
3:25pm            259        0.0       12.0         84       58.7      29.43       53.9      0.030       19.0       19.0         93       63.1         76       55.9       0.00       0.00
3:30pm            261        0.0       12.0         84       58.6      29.44       53.8      0.035       19.0       19.0         93       63.1         76       55.9       0.00       0.00
3:35pm            269        6.0       12.0         84       58.4      29.44       53.6      0.032       19.0       19.0         93       63.1         76       55.9       0.00       0.00
3:40pm            272        0.0       12.0         83       58.3      29.44       53.2      0.030       19.0       19.0         93       63.1         76       55.9       0.00       0.00
3:45pm            285        1.0       12.0         83       58.1      29.45       53.0      0.039       19.0       19.0         93       63.1         76       55.9       0.00       0.00
3:50pm            300        0.0       12.0         84       58.1      29.45       53.3      0.036       19.0       19.0         93       63.1         76       55.9       0.00       0.00
3:54pm            317        1.0       12.0         83       58.0      29.45       52.9      0.033       19.0       19.0         93       63.1         76       55.9       0.00       0.00
4:00pm            256        8.0       12.0         83       57.8      29.47       52.7      0.045       19.0       19.0         93       63.1         76       55.9       0.00       0.00
4:04pm            273        1.0       10.0         83       57.3      29.47       52.2      0.042       19.0       19.0         93       63.1         76       55.9       0.00       0.00
4:10pm            261        3.0       10.0         83       57.3      29.47       52.2      0.038       19.0       19.0         93       63.1         76       55.9       0.00       0.00
4:15pm            303        1.0       10.0         83       57.3      29.48       52.2      0.049       19.0       19.0         93       63.1         76       55.9       0.00       0.00
4:20pm            279        5.0       10.0         83       57.2      29.48       52.1      0.045       19.0       19.0         93       63.1         76       55.9       0.00       0.00
4:25pm            256        6.0       10.0         83       57.0      29.48       51.9      0.041       19.0       19.0         93       63.1         76       55.9       0.00       0.00
4:30pm            240        5.0       10.0         83       56.7      29.49       51.6      0.047       19.0       19.0         93       63.1         76       55.9       0.00       0.00
4:35pm            299        1.0       10.0         83       56.5      29.49       51.4      0.043       19.0       19.0         93       63.1         76       55.9       0.00       0.00
4:40pm            269        1.0       10.0         83       56.3      29.49       51.2      0.040       19.0       19.0         93       63.1         76       55.9       0.00       0.00
4:45pm            278        0.0       10.0         83       56.0      29.50       50.9      0.049       19.0       19.0         93       63.1         76       55.9       0.00       0.00
4:50pm            266        0.0       10.0         84       55.9      29.50       51.1      0.045       19.0       19.0         93       63.1         76       55.9       0.00       0.00
4:55pm             19        0.0       10.0         84       55.6      29.50       50.8      0.042       19.0       19.0         93       63.1         76       55.6       0.00       0.00
5:00pm            344        0.0       10.0         84       55.3      29.51       50.6      0.050       19.0       19.0         93       63.1         76       55.3       0.00       0.00
5:05pm            283        3.0       10.0         84       55.0      29.51       50.3      0.046       19.0       19.0         93       63.1         76       55.0       0.00       0.00
5:10pm            273        1.0       10.0         84       54.8      29.51       50.1      0.043       19.0       19.0         93       63.1         76       54.8       0.00       0.00
5:15pm            264        2.0       10.0         84       54.7      29.52       50.0      0.047       19.0       19.0         93       63.1         76       54.7       0.00       0.00
5:20pm            278        0.0       10.0         84       54.4      29.52       49.7      0.043       19.0       19.0         93       63.1         76       54.4       0.00       0.00
5:25pm            314        0.0       10.0         84       54.2      29.52       49.5      0.040       19.0       19.0         93       63.1         76       54.2       0.00       0.00
5:30pm            314        3.0       10.0         85       54.1      29.53       49.7      0.047       19.0       19.0         93       63.1         76       54.1       0.00       0.00
5:35pm            289        1.0       10.0         84       53.8      29.53       49.1      0.044       19.0       19.0         93       63.1         76       53.8       0.00       0.00
5:40pm            288        0.0       10.0         85       53.6      29.53       49.2      0.040       19.0       19.0         93       63.1         76       53.6       0.00       0.00
5:45pm            289        0.0       10.0         85       53.6      29.54       49.2      0.042       19.0       19.0         93       63.1         76       53.6       0.00       0.00
5:50pm            289        0.0       10.0         85       53.6      29.54       49.2      0.039       19.0       19.0         93       63.1         76       53.6       0.00       0.00
5:55pm            289        0.0       10.0         85       53.5      29.54       49.1      0.035       19.0       19.0         93       63.1         76       53.5       0.00       0.00
6:00pm            312        0.0       10.0         85       53.3      29.55       48.9      0.044       19.0       19.0         93       63.1         76       53.3       0.00       0.00
6:05pm            323        0.0       10.0         86       52.9      29.55       48.8      0.041       19.0       19.0         93       63.1         76       52.9       0.00       0.00
6:10pm            268        3.0       10.0         86       52.6      29.55       48.5      0.038       19.0       19.0         93       63.1         76       52.6       0.00       0.00
6:15pm            265        4.0       10.0         86       52.5      29.56       48.4      0.043       19.0       19.0         93       63.1         76       52.5       0.00       0.00
6:20pm            328        1.0       10.0         86       52.2      29.56       48.1      0.040       19.0       19.0         93       63.1         76       52.2       0.00       0.00
6:25pm            254        0.0       10.0         86       52.2      29.56       48.1      0.037       19.0       19.0         93       63.1         76       52.2       0.00       0.00
6:30pm            259        0.0       11.0         86       52.0      29.57       47.9      0.040       19.0       19.0         93       63.1         76       52.0       0.00       0.00
6:35pm            280        6.0       11.0         86       51.9      29.57       47.9      0.037       19.0       19.0         93       63.1         76       51.9       0.00       0.00
6:40pm            261        0.0       11.0         86       51.7      29.57       47.7      0.034       19.0       19.0         93       63.1         76       51.7       0.00       0.00
6:45pm            261        0.0       11.0         86       51.7      29.57       47.7      0.037       19.0       19.0         93       63.1         76       51.7       0.00       0.00
6:50pm            261        0.0       11.0         86       51.7      29.57       47.7      0.034       19.0       19.0         93       63.1         76       51.7       0.00       0.00
6:55pm            276        0.0       11.0         86       51.7      29.57       47.7      0.031       19.0       19.0         93       63.1         76       51.7       0.00       0.00
7:00pm            282        2.0       11.0         86       51.6      29.58       47.6      0.034       19.0       19.0         93       63.1         76       51.6       0.00       0.00
7:05pm            269        1.0        6.0         86       51.6      29.58       47.6      0.031       19.0       19.0         93       63.1         76       51.6       0.00       0.00
7:10pm            271        0.0        6.0         86       51.4      29.58       47.4      0.028       19.0       19.0         93       63.1         76       51.4       0.00       0.00
7:15pm            282        2.0        6.0         86       51.3      29.58       47.3      0.033       19.0       19.0         93       63.1         76       51.3       0.00       0.00
7:20pm            280        1.0        7.0         86       51.1      29.58       47.1      0.030       19.0       19.0         93       63.1         76       51.1       0.00       0.00
7:25pm            280        2.0        7.0         86       51.0      29.58       47.0      0.028       19.0       19.0         93       63.1         76       51.0       0.00       0.00
7:30pm            266        0.0        7.0         86       50.8      29.59       46.8      0.035       19.0       19.0         93       63.1         76       50.8       0.00       0.00
7:34pm            278        0.0        7.0         87       50.8      29.59       47.1      0.032       19.0       19.0         93       63.1         76       50.8       0.00       0.00
7:40pm            276        0.0        7.0         87       50.8      29.59       47.1      0.029       19.0       19.0         93       63.1         76       50.8       0.00       0.00
7:44pm            316        2.0        7.0         87       50.7      29.60       47.0      0.033       19.0       19.0         93       63.1         76       50.7       0.00       0.00
7:50pm            323        1.0        7.0         87       50.5      29.60       46.8      0.030       19.0       19.0         93       63.1         76       50.5       0.00       0.00
7:54pm            288        0.0        7.0         87       50.4      29.60       46.7      0.028       19.0       19.0         93       63.1         76       50.4       0.00       0.00
8:00pm            307        0.0        7.0         87       50.4      29.61       46.7      0.037       19.0       19.0         93       63.1         76       50.4       0.00       0.00
8:04pm            258        0.0        8.0         88       50.4      29.61       47.0      0.034       19.0       19.0         93       63.1         76       50.4       0.00       0.00
8:10pm            276        0.0        8.0         88       50.4      29.61       47.0      0.032       19.0       19.0         93       63.1         76       50.4       0.00       0.00
8:15pm            276        0.0        8.0         88       50.4      29.61       47.0      0.032       19.0       19.0         93       63.1         76       50.4       0.00       0.00
8:20pm            295        0.0        8.0         88       50.4      29.61       47.0      0.030       19.0       19.0         93       63.1         76       50.4       0.00       0.00
8:25pm            304        3.0        8.0         88       50.4      29.61       47.0      0.027       19.0       19.0         93       63.1         76       50.4       0.00       0.00
8:30pm            280        1.0        8.0         88       50.2      29.62       46.8      0.033       19.0       19.0         93       63.1         76       50.2       0.00       0.00
8:35pm            248        0.0        8.0         88       50.2      29.62       46.8      0.030       19.0       19.0         93       63.1         76       50.2       0.00       0.00
8:40pm            262        3.0        8.0         88       50.2      29.62       46.8      0.028       19.0       19.0         93       63.1         76       50.2       0.00       0.00
8:45pm            245        3.0        8.0         88       50.1      29.63       46.7      0.033       19.0       19.0         93       63.1         76       50.1       0.00       0.00
8:50pm            254        0.0        8.0         88       50.1      29.63       46.7      0.031       19.0       19.0         93       63.1         76       50.1       0.00       0.00
8:55pm            255        1.0        8.0         88       50.1      29.63       46.7      0.028       19.0       19.0         93       63.1         76       50.1       0.00       0.00
9:00pm            278        0.0        8.0         88       50.1      29.64       46.7      0.040       19.0       19.0         93       63.1         76       50.1       0.00       0.00
9:05pm            278        1.0        2.0         88       50.1      29.64       46.7      0.037       19.0       19.0         93       63.1         76       50.1       0.00       0.00
9:10pm            264        5.0        6.0         88       50.1      29.64       46.7      0.034       19.0       19.0         93       63.1         76       50.1       0.00       0.00
9:15pm            262        0.0        6.0         87       50.1      29.64       46.4      0.030       19.0       19.0         93       63.1         76       50.1       0.00       0.00
9:20pm            319        3.0        6.0         87       50.1      29.64       46.4      0.028       19.0       19.0         93       63.1         76       50.1       0.00       0.00
9:25pm            320        2.0        6.0         87       50.1      29.64       46.4      0.025       19.0       19.0         93       63.1         76       50.1       0.00       0.00
9:30pm            269        2.0        6.0         87       50.1      29.64       46.4      0.024       19.0       19.0         93       63.1         76       50.1       0.00       0.00
9:35pm            273        3.0        8.0         87       50.1      29.64       46.4      0.022       19.0       19.0         93       63.1         76       50.1       0.00       0.00
9:40pm            258        0.0        8.0         87       50.1      29.64       46.4      0.021       19.0       19.0         93       63.1         76       50.1       0.00       0.00
9:45pm            348        0.0        8.0         87       50.1      29.65       46.4      0.026       19.0       19.0         93       63.1         76       50.1       0.00       0.00
9:50pm            347        0.0        8.0         87       50.1      29.65       46.4      0.024       19.0       19.0         93       63.1         76       50.1       0.00       0.00
9:55pm            347        0.0        8.0         87       50.1      29.65       46.4      0.022       19.0       19.0         93       63.1         76       50.1       0.00       0.00
10:00pm           279        0.0        8.0         87       50.1      29.66       46.4      0.029       19.0       19.0         93       63.1         76       50.1       0.00       0.00
10:05pm           275        3.0        4.0         87       50.1      29.66       46.4      0.027       19.0       19.0         93       63.1         76       50.1       0.00       0.00
10:10pm           252        1.0        6.0         88       50.1      29.66       46.7      0.025       19.0       19.0         93       63.1         76       50.1       0.00       0.00
10:15pm           252        0.0        6.0         88       50.1      29.66       46.7      0.023       19.0       19.0         93       63.1         76       50.1       0.00       0.00
10:20pm           252        0.0        6.0         88       50.1      29.66       46.7      0.021       19.0       19.0         93       63.1         76       50.1       0.00       0.00
10:25pm           309        1.0        6.0         88       50.1      29.66       46.7      0.019       19.0       19.0         93       63.1         76       50.1       0.00       0.00
10:30pm           307        0.0        6.0         88       50.1      29.67       46.7      0.023       19.0       19.0         93       63.1         76       50.1       0.00       0.00
10:34pm           319        0.0        6.0         89       49.9      29.67       46.8      0.021       19.0       19.0         93       63.1         76       49.9       0.00       0.00
10:40pm           316        0.0        6.0         89       50.1      29.67       47.0      0.019       19.0       19.0         93       63.1         76       49.9       0.00       0.00
10:45pm           317        0.0        6.0         89       49.9      29.67       46.8      0.024       19.0       19.0         93       63.1         76       49.9       0.00       0.00
10:50pm           317        0.0        6.0         89       50.1      29.67       47.0      0.022       19.0       19.0         93       63.1         76       49.9       0.00       0.00
10:55pm           317        0.0        6.0         89       50.1      29.67       47.0      0.021       19.0       19.0         93       63.1         76       49.9       0.00       0.00
11:00pm           317        0.0        6.0         89       50.1      29.67       47.0      0.021       19.0       19.0         93       63.1         76       49.9       0.00       0.00
11:05pm           317        0.0        1.0         89       50.1      29.67       47.0      0.019       19.0       19.0         93       63.1         76       49.9       0.00       0.00
11:10pm           317        0.0        1.0         90       50.1      29.67       47.3      0.018       19.0       19.0         93       63.1         76       49.9       0.00       0.00
11:15pm           317        0.0        1.0         90       50.1      29.68       47.3      0.018       19.0       19.0         93       63.1         76       49.9       0.00       0.00
11:20pm           316        0.0        3.0         90       50.1      29.68       47.3      0.017       19.0       19.0         93       63.1         76       49.9       0.00       0.00
11:25pm           316        0.0        5.0         90       50.1      29.68       47.3      0.015       19.0       19.0         93       63.1         76       49.9       0.00       0.00
11:30pm           316        0.0        5.0         90       50.1      29.68       47.3      0.016       19.0       19.0         93       63.1         76       49.9       0.00       0.00
11:35pm           316        3.0        5.0         90       50.1      29.68       47.3      0.015       19.0       19.0         93       63.1         76       49.9       0.00       0.00
11:40pm           252        0.0        5.0         90       50.2      29.68       47.4      0.014       19.0       19.0         93       63.1         76       49.9       0.00       0.00
11:45pm           316        0.0        5.0         90       50.2      29.68       47.4      0.018       19.0       19.0         93       63.1         76       49.9       0.00       0.00
11:50pm           323        0.0        5.0         90       50.2      29.68       47.4      0.016       19.0       19.0         93       63.1         76       49.9       0.00       0.00
11:55pm           323        0.0        5.0         91       50.2      29.68       47.7      0.015       19.0       19.0         93       63.1         76       49.9       0.00       0.00


Updated Automatically by Ambient Software's Virtual Weather Station  V14.01
All rights reserved. Unauthorized duplication or distribution is prohibited
Never base important decisions on this or any weather information obtained from the Internet